Find Orbcomm FM105

NORAD ID: 41181 Int'l Des: 2015-081 Owner: ORBC Country: US Constellation: orbcomm operational
LEOCIRCULAR

Live Position

Loading 3D Globe...

About Orbcomm FM105

Description loading...

Upcoming Passes

Passes for default location (London). Set your location on the main map for personalized predictions.

Altitude History

Loading altitude history...

Two-Line Element Set

1 41181U 15081C 26110.55933102 .00000106 00000-0 74092-4 0 9991
2 41181 47.0010 218.9450 0002530 255.7182 104.3418 14.45525940545215
Epoch: Apr 20, 2026 • Age: 12 hours

Current Status

Altitude 741.8 km
Velocity 7.48 km/s
Sub-Earth Point -7.26°S, 14.05°W
Launch Date Dec 22, 2015
Age 10.3 years
Type other

Technical Details

Classification Payload
Mass 172.00 kg
Dry Mass 158.00 kg
Total Mass 172.00 kg
Length 1.00 m
Diameter 0.50 m
Span 13.00 m
Shape Box+pan+ant
Manufacturer SNVL
Bus Type SN-100A
Phase Status In Orbit
Owner/State ORBC/US

Most Searched